Date,TemperatureHighF,TemperatureAvgF,TemperatureLowF,DewpointHighF,DewpointAvgF,DewpointLowF,HumidityHigh,HumidityAvg,HumidityLow,PressureMaxIn,PressureMinIn,WindSpeedMaxMPH,WindSpeedAvgMPH,GustSpeedMaxMPH,PrecipitationSumIn
2013-7-1,98,83,73,61,57,46,65,44,17,29.98,29.90,10,3,19,0.00
2013-7-2,93,79,69,64,59,54,64,51,27,30.05,29.97,11,3,18,0.00
2013-7-3,94,80,68,64,59,50,82,51,27,30.01,29.88,8,3,20,0.00
2013-7-4,94,78,67,60,54,42,74,49,17,29.91,29.83,12,3,20,0.00
2013-7-5,87,73,62,62,59,53,91,66,31,29.91,29.84,11,4,18,0.00
2013-7-6,87,70,62,63,62,60,95,78,45,29.90,29.82,12,3,15,0.00
2013-7-7,93,76,62,64,62,59,94,68,33,29.94,29.84,10,2,16,0.00
2013-7-8,100,80,65,64,60,47,84,57,17,30.03,29.92,8,2,16,0.00
2013-7-9,93,82,74,63,57,48,63,43,24,30.07,29.99,10,4,17,0.00
2013-7-10,82,75,72,62,56,-100,68,54,43,30.06,29.99,10,3,17,0.00
2013-7-11,84,73,68,66,63,57,85,72,50,30.06,29.96,7,2,14,0.02
2013-7-12,87,75,67,66,64,60,89,70,41,30.01,29.92,11,3,19,0.00
2013-7-13,90,76,62,64,62,58,96,66,37,30.02,29.94,9,3,18,0.00
2013-7-14,93,79,69,63,58,49,79,53,25,30.01,29.92,12,4,19,0.00
2013-7-15,93,77,66,62,58,53,73,55,29,29.95,29.88,9,2,17,0.00
2013-7-16,91,74,63,62,53,39,84,53,16,30.07,29.93,13,3,23,0.00
2013-7-17,93,73,61,56,47,31,67,46,11,30.09,30.03,11,1,21,0.00
2013-7-18,93,76,62,61,51,36,65,45,15,30.06,29.94,8,2,16,0.00
2013-7-19,88,73,65,61,59,56,84,64,36,29.98,29.90,11,3,16,0.00
2013-7-20,83,67,61,64,58,-100,96,77,53,29.95,29.87,8,3,13,0.00
2013-7-21,81,71,66,66,64,62,91,79,56,30.00,29.86,9,3,15,0.00
2013-7-22,86,74,65,67,65,61,96,75,49,30.06,29.98,14,4,22,0.00
2013-7-23,87,74,66,65,62,61,83,69,46,30.09,29.99,9,3,16,0.00
2013-7-24,90,77,64,64,62,60,88,63,41,30.06,29.95,10,3,16,0.00
2013-7-25,90,75,65,64,62,59,89,67,36,30.09,30.00,8,3,15,0.00
2013-7-26,81,71,65,66,63,61,86,75,58,30.15,30.07,8,2,12,0.00
2013-7-27,88,76,65,64,62,60,89,64,42,30.09,29.95,14,4,21,0.00
2013-7-28,84,70,60,63,58,47,97,71,29,29.98,29.93,12,4,20,0.00
2013-7-29,86,66,55,60,56,54,96,75,35,30.11,29.97,10,3,16,0.00
2013-7-30,86,68,58,59,57,55,95,73,35,30.16,30.09,10,4,17,0.00
2013-7-31,79,66,57,61,58,56,97,79,49,30.16,30.06,12,4,17,0.00